State College, PA

8:57 AM EDT on July 27, 2017 (GMT -0400)
University Park

Weather History for KUNV - January, 2014

Change the Weather History Date:

Thursday, January 30, 2014

  Actual Average Record
Temperature  
Mean Temperature 20 °F -  
Max Temperature 30 °F 32 °F 65 °F (1947)
Min Temperature 10 °F 16 °F -10 °F (1977)
Degree Days  
Heating Degree Days 45    
Moisture  
Dew Point -5 °F    
Average Humidity 38    
Maximum Humidity 49    
Minimum Humidity 18    
Precipitation  
Precipitation 0.00 in - - ()
Sea Level Pressure  
Sea Level Pressure 30.20 in    
Wind  
Wind Speed 8 mph (SW)    
Max Wind Speed 12 mph    
Max Gust Speed 16 mph    
Visibility 10 miles    
Events      
Averages and records for this station are not official NWS values.
T = Trace of Precipitation, MM = Missing Value Source: NWS Daily Summary

Daily Weather History Graph

Daily Weather History Graph

Search for Another Location

Airport or City:

Trip Planner

Search our weather history database for the weather conditions in past years. The results will help you decide how hot, cold, wet, or windy it might be!

Date:

Astronomy

Jan. 30, 2014 Rise Set
Actual Time 7:23 AM EST 5:26 PM EST
Civil Twilight 6:54 AM EST 5:55 PM EST
Nautical Twilight 6:21 AM EST 6:28 PM EST
Astronomical Twilight 5:49 AM EST 7:00 PM EST
Moon 6:47 AM EST (1/30) 5:36 PM EST (1/30)
Length of Visible Light 11h 01m
Length of Day
10h 02m
Waning Crescent, 0% of the Moon is Illuminated
Jan 30
Waning Crescent
Jan 30
New
Feb 6
First Quarter
Feb 14
Full
Feb 22
Last Quarter

Hourly Weather History & Observations

Time (EST) Temp. Windchill Dew Point Humidity Pressure Visibility Wind Dir Wind Speed Gust Speed Precip Events Conditions
12:15 AM 14.9 °F 1.6 °F -5.6 °F 40% 30.26 in 10.0 mi WSW 11.5 mph - N/A   Scattered Clouds
12:35 AM 14.4 °F 1.6 °F -5.3 °F 42% 30.27 in 10.0 mi WSW 10.4 mph - N/A   Scattered Clouds
12:55 AM 14.2 °F 1.4 °F -5.1 °F 42% 30.26 in 10.0 mi WSW 10.4 mph - N/A   Clear
1:15 AM 14.2 °F 3.1 °F -5.1 °F 42% 30.26 in 10.0 mi WSW 8.1 mph - N/A   Clear
1:35 AM 14.0 °F 2.0 °F -4.9 °F 43% 30.26 in 10.0 mi West 9.2 mph - N/A   Clear
1:55 AM 14.2 °F 1.4 °F -4.9 °F 43% 30.26 in 10.0 mi West 10.4 mph 16.1 mph N/A   Clear
2:15 AM 13.6 °F 1.6 °F -5.3 °F 43% 30.26 in 10.0 mi West 9.2 mph - N/A   Clear
2:35 AM 12.4 °F 2.0 °F -5.1 °F 46% 30.26 in 10.0 mi WSW 6.9 mph - N/A   Clear
2:55 AM 13.1 °F 4.0 °F -5.6 °F 43% 30.26 in 10.0 mi West 5.8 mph - N/A   Clear
3:15 AM 12.7 °F 5.0 °F -6.0 °F 43% 30.26 in 10.0 mi West 4.6 mph - N/A   Clear
3:35 AM 11.3 °F 3.3 °F -5.8 °F 46% 30.26 in 10.0 mi SSW 4.6 mph - N/A   Clear
3:55 AM 11.1 °F 3.1 °F -5.1 °F 48% 30.26 in 10.0 mi SSW 4.6 mph - N/A   Clear
4:15 AM 10.9 °F 2.9 °F -5.4 °F 48% 30.26 in 10.0 mi SSW 4.6 mph - N/A   Clear
4:35 AM 11.5 °F 0.9 °F -5.3 °F 47% 30.27 in 10.0 mi SSW 6.9 mph - N/A   Clear
4:55 AM 10.4 °F 0.8 °F -5.3 °F 49% 30.28 in 10.0 mi SSW 5.8 mph - N/A   Clear
5:15 AM 10.8 °F 1.2 °F -5.8 °F 47% 30.28 in 10.0 mi SW 5.8 mph - N/A   Clear
5:35 AM 10.0 °F -0.9 °F -6.2 °F 48% 30.28 in 10.0 mi WSW 6.9 mph - N/A   Scattered Clouds
5:53 AM 10.4 °F -0.4 °F -5.8 °F 48% 30.29 in 10.0 mi West 6.9 mph - N/A   Scattered Clouds
6:53 AM 10.4 °F 0.8 °F -5.8 °F 48% 30.31 in 10.0 mi West 5.8 mph - N/A   Clear
7:53 AM 10.4 °F 0.8 °F -5.8 °F 48% 30.32 in 10.0 mi West 5.8 mph - N/A   Clear
8:53 AM 12.2 °F - -4.0 °F 48% 30.33 in 10.0 mi Calm Calm - N/A   Clear
9:53 AM 17.6 °F - -2.2 °F 42% 30.34 in 10.0 mi Calm Calm - N/A   Clear
11:53 AM 24.8 °F 19.1 °F -7.6 °F 24% 30.28 in 10.0 mi South 4.6 mph - N/A   Clear
12:53 PM 26.6 °F 18.2 °F -7.6 °F 22% 30.23 in 10.0 mi SW 8.1 mph - N/A   Clear
1:53 PM 28.4 °F 19.1 °F -9.4 °F 19% 30.20 in 10.0 mi SW 10.4 mph - N/A   Clear
2:53 PM 30.2 °F 21.9 °F -9.4 °F 18% 30.15 in 10.0 mi South 9.2 mph - N/A   Clear
3:53 PM 30.2 °F 20.8 °F -9.4 °F 18% 30.14 in 10.0 mi South 11.5 mph - N/A   Clear
4:53 PM 28.4 °F 18.5 °F -11.2 °F 18% 30.13 in 10.0 mi SSW 11.5 mph - N/A   Clear
5:50 PM 26.6 °F 16.2 °F -9.4 °F 21% 30.11 in 10.0 mi SSW 11.5 mph - N/A   Overcast
6:53 PM 24.8 °F 14.0 °F 3.2 °F 40% 30.11 in 10.0 mi SSW 11.5 mph - N/A   Clear
7:53 PM 23.0 °F 11.7 °F 5.0 °F 46% 30.11 in 10.0 mi SSW 11.5 mph - N/A   Clear
8:51 PM 23.0 °F 11.7 °F 5.0 °F 46% 30.09 in 10.0 mi SSW 11.5 mph - N/A   Clear
9:55 PM 25.7 °F 19.0 °F -3.5 °F 28% 30.05 in 10.0 mi SSW 5.8 mph - N/A   Clear
10:15 PM 25.5 °F 18.7 °F -2.4 °F 30% 30.05 in 10.0 mi SSW 5.8 mph - N/A   Clear
10:35 PM 25.3 °F 17.6 °F -2.0 °F 31% 30.04 in 10.0 mi South 6.9 mph - N/A   Clear
10:55 PM 25.7 °F 19.0 °F -2.9 °F 29% 30.03 in 10.0 mi SSW 5.8 mph - N/A   Clear
11:15 PM 25.7 °F 16.4 °F -1.8 °F 30% 30.02 in 10.0 mi SSW 9.2 mph - N/A   Clear
11:35 PM 26.1 °F 17.6 °F -2.0 °F 30% 30.01 in 10.0 mi SSW 8.1 mph - N/A   Clear
11:55 PM 26.2 °F 18.6 °F -1.5 °F 30% 30.00 in 10.0 mi SSW 6.9 mph - N/A   Clear